Location: McFarlands Corners
(41.4117°N, 81.3382°W)
Time: 02:34:50
(UTC+00:00)

Transit 4A - Pass Details

Date: 25 February 2026
Orbit: 863 x 978 km, 66.8° (Epoch: 13 March)

Event Time Altitude Azimuth Distance (km) Brightness Sun altitude
Rises 15:33:42 0° 334° (NNW) 3,614 10.5 32.1°
Reaches altitude 10° 15:36:22 10° 341° (NNW) 2,682 9.9 32.4°
Maximum altitude 15:42:21 45° 53° (NE) 1,302 9.1 33.1°
Drops below altitude 10° 15:48:25 10° 125° (SE) 2,716 11.5 33.7°
Sets 15:51:07 0° 131° (SE) 3,664 12.0 34.0°
